Overview Statistics Trail Chart Weather Telemetry Raw packets
 

This is the latest recevied weather packets stored in our database for station/object KU4DD. If no packets are shown the sender has not sent any weather packets the latest 10 day(s).

<< 10 11 12 13 14 15 16 >>
Time Temp. Humidity Pressure Rain* Wind** Luminosity Snow
1788115527 29.44° C 71% 1021 hPa 0 mm - 308 W/m² -
1788113661 29.44° C 70% 1021.3 hPa 0 mm - 448 W/m² -
1788110266 28.33° C 74% 1022 hPa 0 mm - 807 W/m² -
1788108708 27.78° C 76% 1022.4 hPa 0 mm - 524 W/m² -
1788106849 27.22° C 80% 1022.4 hPa 0 mm - 397 W/m² -
1788103171 26.11° C 84% 1023 hPa 0 mm - 387 W/m² -
1788101292 25.56° C 88% 1023 hPa 0 mm - 452 W/m² -
1788100062 25° C 91% 1022.7 hPa 0 mm - 731 W/m² -
1788097585 23.33° C 97% 1023 hPa 0 mm - 174 W/m² -
1788096958 23.33° C 98% 1023.4 hPa 0 mm - 204 W/m² -
1788092060 22.22° C 98% 1022.7 hPa 0 mm - 91 W/m² -
1788091731 21.67° C 98% 1022.7 hPa 0 mm - 95 W/m² -
1788091108 22.22° C 98% 1023 hPa 0 mm - 93 W/m² -
1788082762 21.67° C 98% 1021.7 hPa 0 mm - 0 W/m² -
1788082441 21.67° C 98% 1021.7 hPa 0 mm - 0 W/m² -
1788079040 21.67° C 98% 1021.7 hPa 0 mm - 0 W/m² -
1788077483 21.67° C 98% 1021.7 hPa 0 mm - 0 W/m² -
1788074079 21.67° C 97% 1021.7 hPa 0 mm - 0 W/m² -
1788072825 21.67° C 98% 1022 hPa 0 mm - 0 W/m² -
1788067574 21.67° C 97% 1022.4 hPa 0 mm - 0 W/m² -
1788066635 21.67° C 97% 1022.4 hPa 0 mm - 0 W/m² -
1788061354 22.22° C 96% 1022.7 hPa 0 mm - 0 W/m² -
1788060731 22.22° C 96% 1023 hPa 0 mm - 0 W/m² -
1788058869 22.78° C 96% 1022.7 hPa 0 mm - 0 W/m² -
1788057931 22.78° C 96% 1022.4 hPa 0 mm - 0 W/m² -

* Rain latest hour (hover to see other rain measurements)
** Current wind speed in m/s (hover to see current wind gust speed)